Wind_Speed
39 38 37 37 36 36 33 30 27 27 27 26 25 24 22 21 19 18 16 14 13 13 12 12 11 11 10 9 9 9 9 9 9 9 9 8 8 7 6 6 6 6 7 7 8 9 9 10 10
41 40 39 39 39 37 34 31 29 27 27 27 26 25 24 22 21 19 17 16 15 14 13 13 13 12 11 11 11 10 11 11 10 10 10 10 9 8 8 8 8 8 8 8 9 10 10 11 11
43 42 41 41 40 37 34 32 30 29 29 29 28 27 25 23 22 21 20 18 17 16 15 14 14 13 13 12 13 12 12 12 12 11 11 11 10 10 9 9 9 9 9 10 10 11 11 12 12
45 45 44 43 41 37 35 33 32 31 31 31 30 29 27 26 24 23 22 21 19 18 17 16 15 15 14 14 14 14 13 13 13 13 12 12 11 12 11 11 10 11 11 11 12 12 13 13 14
46 47 46 45 41 38 37 36 35 34 33 33 32 30 29 28 26 25 24 23 21 19 19 18 17 16 16 15 15 15 15 15 15 14 13 13 12 12 12 12 12 12 13 13 13 14 14 14 14
49 49 48 46 42 39 38 37 37 36 35 35 34 32 31 30 28 27 25 24 23 21 21 20 19 18 18 17 17 17 16 16 16 15 15 15 14 13 14 14 14 14 14 15 15 15 15 15 15
49 49 48 46 43 42 39 38 38 38 37 36 35 33 32 31 30 28 27 26 25 24 23 22 21 20 19 19 18 18 17 17 17 16 16 16 15 15 15 15 15 15 16 16 16 16 16 16 16
50 50 49 47 44 43 40 39 39 38 38 37 37 36 34 32 31 30 29 28 27 26 25 24 23 22 21 21 20 19 19 18 18 17 17 17 16 16 16 16 16 16 17 17 17 17 17 17 17
51 51 50 47 45 43 42 41 40 39 39 38 38 37 36 34 33 31 30 29 28 27 27 26 25 24 23 22 22 21 20 20 19 19 19 19 18 18 18 17 17 17 17 17 17 17 18 18 18
51 51 49 46 45 44 43 43 42 41 41 40 39 38 37 35 34 33 32 31 29 28 28 27 26 26 25 24 23 22 22 21 21 20 21 20 20 20 19 19 18 18 18 18 18 19 19 20 20
51 50 48 46 46 45 45 44 43 42 41 40 38 37 37 36 35 34 33 32 31 30 30 29 28 28 27 26 25 24 24 23 23 22 22 22 22 22 21 20 20 19 19 19 20 20 21 21 21
50 49 48 47 46 46 46 46 45 44 41 40 39 38 37 36 35 35 34 34 33 32 32 31 30 29 28 28 27 26 26 25 24 24 24 24 23 23 22 21 22 22 21 21 22 22 22 23 23
50 48 48 48 48 47 47 47 47 45 43 42 41 40 39 37 37 36 35 35 34 34 33 32 31 30 30 29 29 28 27 26 26 26 25 25 24 24 24 24 24 24 24 24 24 24 24 25 25
50 49 49 48 48 48 48 48 48 47 45 43 43 42 41 40 39 38 37 36 35 35 34 33 33 32 31 31 30 29 29 28 28 27 27 26 26 26 25 25 26 26 26 26 26 26 26 27 27
52 50 50 50 49 48 48 49 48 47 46 45 44 43 42 42 40 39 38 38 37 37 36 35 34 34 34 33 32 32 31 30 29 29 28 28 28 28 27 27 27 27 27 27 28 28 28 28 28
53 53 52 51 50 49 50 49 48 47 47 46 45 44 43 42 41 40 39 39 39 39 38 37 37 36 36 34 34 33 32 32 32 31 30 30 30 29 29 29 29 29 29 29 29 29 29 29 29
53 54 53 52 52 51 51 49 48 48 47 46 45 44 44 43 42 41 40 40 40 40 39 39 38 38 37 37 36 35 35 34 34 33 32 31 31 31 30 30 31 31 31 31 30 30 31 30 30
52 53 52 52 52 52 51 49 49 48 47 45 45 45 44 44 43 42 42 41 41 41 40 40 39 39 39 39 38 37 37 36 36 35 34 34 33 32 32 32 32 32 32 31 31 31 32 32 31
49 51 52 51 51 51 51 50 49 49 48 46 45 45 45 44 43 43 43 43 42 42 41 41 41 41 40 41 40 39 38 38 38 37 36 36 35 34 33 33 33 33 33 33 33 33 33 33 33
48 50 51 51 50 50 51 51 51 50 49 47 46 45 45 45 44 44 44 43 43 42 42 42 42 42 41 41 41 41 40 39 39 38 38 37 36 36 35 34 33 33 34 34 34 35 35 35 34
47 49 49 49 50 50 50 50 51 51 51 49 48 47 45 45 45 44 43 43 43 42 42 42 42 42 42 42 42 42 42 41 40 39 38 38 37 36 35 35 34 34 35 35 36 36 35 36 36
43 45 46 47 48 49 50 51 50 50 50 49 48 47 46 45 44 44 44 43 43 43 43 43 43 42 42 42 43 42 42 42 41 41 40 39 38 37 37 37 36 36 36 36 36 36 36 36 36
39 41 43 44 46 47 48 49 49 49 49 48 47 46 45 45 44 43 43 43 43 43 43 43 43 43 43 42 42 42 42 42 42 41 41 41 40 40 39 39 38 38 38 38 37 37 37 37 37
37 38 40 41 43 47 48 48 49 49 48 47 46 45 45 44 43 43 44 44 44 43 43 43 43 43 42 42 42 41 42 42 42 42 42 42 41 41 40 40 40 39 40 40 40 39 39 38 38
37 38 38 40 42 45 46 48 48 47 47 46 44 44 44 45 44 43 43 44 44 44 44 43 43 43 42 43 42 42 42 42 43 43 43 43 42 41 41 40 41 41 41 41 41 41 40 40 39
36 37 40 42 44 44 44 47 46 45 45 45 44 44 44 44 44 43 43 43 44 44 44 44 44 43 43 43 43 43 43 42 43 43 43 43 43 43 42 42 42 42 42 42 42 42 41 41 41
35 37 38 39 42 42 44 45 45 43 43 43 43 44 44 44 44 44 44 44 44 45 45 45 45 44 44 44 43 43 43 43 43 43 43 43 44 44 43 43 43 43 43 43 43 43 42 42 42
34 35 37 38 39 41 41 42 43 41 41 41 41 42 43 43 43 43 43 43 44 44 45 45 45 45 45 45 45 45 44 44 44 43 44 44 44 44 44 44 44 44 44 44 44 44 44 43 43
32 35 36 38 38 39 40 40 39 38 39 39 40 41 42 43 43 43 43 43 44 44 45 45 46 45 46 46 46 45 45 44 44 44 44 45 45 44 44 44 45 45 45 45 45 44 44 44 44
31 33 35 37 38 38 38 38 37 38 38 39 39 40 41 42 43 43 43 43 44 44 45 46 46 45 45 46 46 46 45 45 45 45 45 45 45 45 45 45 45 46 46 46 45 45 45 45 46
Wind_Direction
229 228 227 226 227 227 227 226 224 223 223 222 223 222 220 222 224 226 223 223 225 226 226 226 228 231 231 230 229 231 236 239 242 243 246 250 251 257 264 271 279 282 283 285 288 290 291 292 293
229 229 228 228 228 228 227 226 225 224 224 223 224 224 223 223 225 226 226 226 228 229 229 229 231 232 232 233 233 235 239 241 244 244 247 250 251 257 263 268 276 281 284 287 288 290 291 292 292
229 229 229 229 229 229 228 227 225 225 224 224 224 225 224 223 224 226 228 229 230 232 232 232 234 233 233 235 236 237 240 241 243 246 247 248 252 259 265 269 275 280 284 288 291 291 292 293 293
229 229 229 229 229 228 228 226 225 225 224 225 225 225 224 224 225 226 228 230 231 232 234 234 235 235 235 237 238 240 241 241 243 246 248 251 257 260 264 269 273 278 283 287 290 292 293 294 293
228 228 229 230 229 228 227 227 226 226 225 226 226 227 227 226 227 227 228 229 231 232 234 235 236 237 237 238 241 242 243 243 244 246 249 253 259 262 264 270 274 278 282 286 289 290 292 293 293
228 229 230 230 230 229 227 227 228 226 227 226 226 227 228 228 228 229 230 230 231 232 234 235 236 238 238 239 240 243 244 246 246 246 250 254 258 263 268 271 274 277 281 284 287 288 291 293 293
229 229 231 231 230 229 227 227 229 228 228 228 227 227 228 229 229 229 230 231 232 233 234 235 236 238 240 240 241 243 244 246 247 248 251 254 258 263 267 271 274 277 279 281 284 287 288 289 291
228 229 230 229 229 229 227 227 228 229 228 228 228 228 228 228 229 230 230 231 231 233 234 235 236 238 239 241 243 243 244 245 247 249 253 255 259 263 267 270 273 276 278 280 283 285 287 288 290
227 228 229 228 228 228 227 227 228 229 229 228 228 228 228 228 228 230 231 232 233 234 235 236 236 237 239 241 243 244 244 245 247 250 254 257 260 264 267 270 271 273 276 279 282 284 286 288 289
226 227 228 228 227 227 227 228 228 229 229 229 229 229 229 229 229 230 231 232 233 234 235 236 237 238 239 241 242 244 245 246 249 252 255 259 261 263 266 269 271 272 274 277 280 282 284 286 288
227 227 226 226 226 226 226 227 228 229 230 230 230 230 230 231 231 231 231 231 232 233 235 235 237 238 239 241 243 245 246 248 250 253 255 259 261 263 265 268 269 272 274 277 279 281 283 285 286
226 226 225 225 225 226 226 226 228 228 229 230 231 231 231 230 231 232 233 232 233 233 234 235 236 238 239 242 244 246 247 248 250 253 255 258 260 261 264 267 269 271 273 276 278 280 282 284 285
225 224 225 225 225 225 225 226 228 228 228 229 230 230 231 231 231 232 233 233 233 234 235 237 239 239 240 242 244 246 247 249 250 252 255 257 260 263 265 267 269 270 272 274 277 279 281 283 285
223 223 224 224 224 224 225 226 228 229 229 229 231 231 232 232 233 233 233 234 234 235 237 238 240 242 242 243 244 245 247 249 251 253 255 257 260 263 265 267 269 271 272 274 275 278 280 282 283
222 222 223 223 223 224 225 226 228 229 229 230 230 232 232 232 233 234 235 236 236 237 238 239 240 242 243 244 245 246 247 249 251 253 255 257 260 262 265 267 269 270 272 274 275 277 279 281 282
221 222 222 222 223 224 225 226 227 229 230 229 230 231 232 233 233 234 235 236 237 237 238 240 241 242 243 245 246 246 248 250 251 253 255 257 259 262 264 266 269 271 273 275 277 277 279 280 281
221 222 222 222 223 224 226 226 226 229 230 230 230 231 232 233 234 234 235 236 237 238 239 240 241 242 244 244 246 247 248 249 251 253 255 258 260 261 264 266 268 270 272 274 276 278 278 279 281
222 223 223 223 224 225 227 227 227 228 230 230 231 231 232 234 235 235 236 237 238 239 240 241 242 243 244 245 246 248 248 250 251 253 255 257 260 262 264 266 267 269 271 273 276 277 279 280 281
224 223 224 224 225 227 228 228 228 229 230 230 231 232 233 234 235 236 236 237 238 240 241 243 243 244 245 247 247 249 250 251 253 255 257 259 261 262 264 265 267 269 271 273 275 277 278 280 281
222 223 223 223 224 227 227 228 228 229 230 231 232 232 233 233 235 236 237 237 238 240 242 243 245 246 246 247 247 248 250 253 254 257 259 260 261 264 265 266 267 269 271 273 275 276 278 279 280
221 222 223 224 224 226 227 227 228 229 230 230 231 232 233 235 235 236 237 238 239 240 242 243 245 246 247 248 248 248 250 252 254 256 258 260 261 263 264 265 267 269 271 273 275 276 277 278 279
221 221 223 225 226 226 228 230 228 229 230 231 231 233 234 235 236 236 238 239 240 241 242 244 245 246 248 249 249 249 250 251 253 255 257 259 261 262 263 264 266 269 271 273 274 275 276 278 279
222 222 224 225 227 228 228 231 229 230 230 231 232 234 235 236 236 236 237 239 240 241 242 243 245 246 247 248 249 249 250 251 253 255 256 258 260 262 264 265 266 269 271 272 274 274 275 277 278
221 222 222 225 227 229 228 231 232 231 232 233 233 233 234 235 236 237 237 238 240 241 242 243 245 246 247 248 249 250 251 251 253 254 257 258 260 261 264 265 267 269 271 273 273 274 275 277 278
219 221 221 221 225 229 228 231 231 231 232 232 232 233 234 235 236 237 238 239 240 241 242 243 244 246 247 248 249 250 251 252 253 255 257 258 259 261 263 264 267 269 270 272 273 273 275 276 277
222 223 222 224 228 230 230 231 230 231 232 233 233 233 234 235 236 237 238 239 240 242 242 243 244 246 247 248 249 250 251 252 254 256 256 257 259 260 262 264 266 268 270 271 272 273 274 276 277
223 225 224 227 231 233 233 234 232 232 233 233 234 235 235 235 236 238 239 240 241 242 242 243 244 246 247 248 249 250 250 252 254 255 256 257 259 260 262 263 265 267 269 271 272 273 274 275 276
224 226 226 227 231 235 236 236 236 235 235 235 236 237 237 238 239 239 240 241 242 243 243 243 244 245 247 248 249 250 251 253 254 255 255 257 259 261 262 262 264 266 268 270 272 273 274 275 276
221 223 227 230 232 237 239 238 236 236 237 236 236 237 238 239 240 241 241 241 242 243 244 244 244 246 247 248 249 251 252 253 254 256 257 258 260 261 262 263 264 266 267 269 271 272 273 275 276
224 226 228 231 233 237 240 240 239 238 237 237 237 237 237 239 240 241 242 242 243 243 243 244 244 246 247 248 249 251 252 252 254 255 257 259 260 261 261 263 264 266 267 269 270 271 273 275 276
Height
5820 5824 5828 5831 5834 5837 5840 5845 5849 5852 5854 5856 5858 5860 5863 5866 5869 5873 5873 5873 5875 5876 5877 5879 5880 5881 5882 5883 5884 5885 5886 5887 5887 5888 5889 5889 5889 5890 5890 5890 5890 5889 5889 5889 5889 5888 5888 5887 5887
5814 5818 5822 5824 5827 5831 5837 5841 5845 5848 5851 5853 5854 5857 5859 5862 5865 5868 5869 5871 5872 5874 5875 5877 5878 5879 5880 5881 5882 5884 5885 5885 5886 5887 5887 5888 5888 5889 5889 5889 5889 5888 5888 5888 5887 5887 5886 5886 5885
5807 5810 5815 5818 5821 5827 5833 5837 5841 5843 5846 5848 5850 5853 5856 5859 5862 5864 5866 5868 5870 5872 5873 5875 5876 5877 5878 5880 5881 5882 5883 5884 5885 5885 5886 5887 5887 5887 5888 5887 5887 5887 5887 5886 5886 5885 5885 5884 5883
5799 5803 5806 5811 5816 5823 5827 5832 5835 5837 5841 5843 5846 5849 5852 5855 5858 5861 5863 5865 5867 5869 5870 5872 5874 5875 5876 5878 5879 5880 5881 5882 5883 5883 5884 5885 5886 5886 5886 5886 5886 5886 5885 5885 5884 5884 5883 5882 5881
5791 5795 5799 5804 5811 5817 5821 5825 5828 5832 5835 5838 5841 5845 5848 5851 5854 5857 5859 5861 5863 5866 5867 5869 5871 5872 5874 5875 5877 5878 5879 5880 5881 5881 5882 5883 5884 5884 5884 5884 5884 5884 5883 5883 5882 5882 5881 5880 5879
5782 5786 5792 5797 5805 5811 5815 5819 5822 5826 5829 5833 5836 5840 5843 5847 5850 5853 5856 5858 5860 5862 5864 5866 5868 5869 5871 5873 5874 5875 5876 5877 5878 5879 5880 5881 5881 5881 5882 5882 5881 5881 5881 5880 5880 5879 5878 5878 5877
5774 5779 5785 5792 5798 5803 5809 5812 5816 5820 5824 5828 5831 5835 5838 5841 5845 5848 5851 5854 5856 5858 5860 5862 5864 5866 5868 5870 5871 5872 5874 5875 5876 5877 5877 5878 5878 5879 5879 5879 5879 5878 5878 5878 5877 5876 5876 5875 5874
5765 5771 5776 5783 5790 5796 5802 5806 5809 5813 5817 5822 5825 5829 5833 5837 5840 5844 5847 5849 5852 5854 5856 5859 5861 5863 5865 5866 5868 5869 5871 5872 5873 5874 5874 5875 5875 5876 5876 5876 5876 5875 5875 5875 5874 5873 5873 5872 5871
5756 5762 5768 5777 5784 5790 5794 5798 5802 5806 5811 5815 5819 5823 5828 5831 5835 5838 5842 5845 5847 5850 5852 5855 5857 5859 5861 5863 5864 5866 5867 5869 5870 5870 5871 5872 5872 5873 5873 5873 5872 5872 5872 5871 5871 5870 5869 5869 5868
5746 5753 5763 5770 5776 5781 5786 5790 5794 5799 5804 5808 5812 5817 5821 5826 5829 5833 5836 5840 5843 5846 5848 5850 5852 5855 5857 5859 5860 5862 5864 5865 5866 5867 5868 5868 5869 5869 5869 5869 5869 5869 5869 5868 5867 5867 5866 5865 5864
5738 5746 5755 5761 5766 5771 5777 5782 5787 5792 5797 5803 5807 5812 5815 5820 5823 5827 5831 5834 5837 5840 5843 5845 5848 5850 5852 5854 5856 5858 5859 5860 5862 5863 5863 5864 5865 5865 5865 5865 5865 5865 5865 5864 5864 5863 5862 5861 5860
5730 5738 5745 5752 5757 5763 5768 5774 5779 5784 5791 5796 5801 5805 5809 5813 5817 5821 5825 5828 5832 5835 5837 5840 5842 5845 5847 5849 5851 5853 5855 5856 5857 5858 5859 5860 5860 5861 5861 5861 5861 5861 5861 5860 5860 5859 5858 5857 5856
5721 5729 5736 5742 5748 5754 5760 5766 5771 5777 5783 5788 5793 5798 5802 5807 5811 5814 5818 5821 5825 5828 5831 5834 5837 5839 5842 5844 5846 5848 5849 5851 5852 5853 5854 5855 5856 5856 5856 5856 5856 5856 5856 5856 5855 5855 5854 5853 5851
5713 5720 5726 5732 5739 5745 5751 5757 5763 5769 5775 5781 5786 5790 5795 5800 5804 5808 5811 5815 5819 5822 5825 5828 5831 5833 5836 5838 5840 5842 5844 5845 5847 5848 5849 5850 5850 5851 5851 5851 5851 5851 5851 5851 5850 5849 5849 5847 5846
5702 5709 5715 5722 5729 5736 5742 5748 5755 5762 5767 5773 5778 5783 5787 5792 5796 5801 5805 5809 5812 5816 5819 5822 5825 5827 5829 5831 5834 5836 5838 5839 5841 5842 5843 5844 5845 5845 5846 5846 5846 5846 5846 5845 5844 5844 5843 5842 5840
5691 5698 5705 5714 5721 5727 5734 5740 5748 5753 5758 5764 5770 5775 5779 5784 5789 5793 5797 5801 5805 5808 5812 5815 5818 5820 5822 5825 5827 5829 5831 5833 5834 5835 5837 5838 5839 5839 5840 5840 5840 5840 5839 5839 5839 5838 5837 5836 5834
5680 5688 5697 5706 5712 5718 5725 5732 5739 5744 5749 5755 5761 5766 5771 5776 5781 5785 5789 5794 5797 5800 5804 5807 5810 5813 5815 5818 5820 5822 5824 5826 5827 5828 5830 5831 5832 5833 5833 5834 5834 5833 5833 5833 5832 5832 5831 5830 5828
5673 5682 5689 5696 5703 5709 5716 5724 5730 5735 5741 5747 5752 5758 5763 5768 5773 5777 5781 5785 5789 5792 5796 5799 5802 5805 5808 5810 5812 5814 5816 5818 5820 5821 5823 5824 5825 5826 5826 5827 5827 5827 5826 5826 5826 5825 5824 5823 5822
5667 5674 5680 5688 5695 5701 5707 5714 5720 5726 5731 5738 5744 5749 5754 5760 5764 5768 5773 5777 5780 5784 5787 5790 5793 5797 5799 5802 5804 5806 5808 5810 5812 5814 5815 5816 5817 5818 5819 5819 5819 5819 5819 5819 5818 5818 5817 5816 5815
5656 5663 5671 5679 5686 5691 5697 5704 5710 5716 5722 5729 5735 5740 5746 5750 5755 5760 5764 5768 5772 5776 5779 5782 5784 5788 5791 5793 5795 5798 5800 5802 5804 5806 5807 5808 5809 5810 5811 5812 5812 5812 5812 5812 5811 5810 5809 5808 5807
5648 5655 5663 5670 5676 5680 5686 5693 5700 5706 5712 5718 5725 5731 5736 5741 5746 5751 5755 5759 5763 5767 5770 5773 5775 5778 5781 5784 5786 5789 5791 5794 5796 5798 5799 5800 5801 5802 5803 5803 5804 5804 5804 5803 5803 5803 5802 5801 5800
5641 5649 5655 5661 5666 5671 5677 5682 5691 5697 5703 5710 5716 5722 5728 5733 5737 5742 5746 5750 5753 5757 5760 5763 5766 5769 5771 5774 5777 5779 5782 5784 5787 5788 5790 5791 5793 5794 5794 5795 5795 5796 5796 5795 5795 5794 5793 5793 5792
5635 5641 5647 5652 5657 5663 5668 5673 5682 5687 5694 5702 5708 5714 5719 5724 5728 5733 5737 5740 5743 5746 5750 5753 5756 5759 5762 5765 5767 5770 5772 5775 5777 5779 5781 5783 5784 5785 5786 5786 5787 5787 5787 5787 5786 5786 5785 5784 5783
5628 5634 5638 5643 5647 5652 5660 5665 5672 5678 5686 5693 5699 5705 5710 5714 5719 5723 5727 5730 5733 5737 5740 5744 5747 5749 5752 5755 5758 5760 5763 5765 5767 5769 5772 5773 5775 5776 5777 5777 5778 5778 5778 5778 5777 5777 5776 5775 5774
5620 5626 5630 5634 5637 5643 5651 5655 5663 5671 5678 5684 5690 5695 5700 5705 5709 5713 5717 5721 5724 5728 5731 5734 5737 5740 5743 5745 5748 5751 5753 5755 5758 5760 5762 5763 5765 5766 5767 5768 5768 5768 5768 5768 5768 5768 5767 5766 5765
5614 5619 5624 5628 5631 5637 5642 5647 5656 5663 5669 5674 5680 5685 5690 5694 5699 5703 5707 5711 5714 5718 5721 5724 5727 5730 5733 5736 5739 5741 5744 5746 5748 5750 5751 5753 5755 5756 5757 5758 5758 5758 5759 5758 5758 5758 5757 5757 5756
5609 5613 5619 5623 5625 5630 5634 5640 5648 5654 5659 5665 5670 5675 5680 5684 5689 5693 5697 5701 5704 5707 5711 5714 5718 5720 5723 5726 5729 5732 5734 5736 5738 5740 5742 5743 5745 5746 5747 5747 5748 5748 5748 5748 5748 5748 5747 5747 5746
5605 5608 5612 5615 5618 5622 5627 5633 5640 5646 5651 5657 5661 5666 5670 5675 5679 5683 5687 5691 5694 5697 5701 5704 5707 5710 5713 5716 5719 5721 5724 5726 5727 5729 5731 5733 5734 5736 5736 5737 5738 5738 5738 5738 5738 5738 5737 5737 5736
5599 5603 5605 5609 5613 5616 5620 5628 5633 5638 5643 5648 5652 5656 5660 5665 5669 5673 5677 5680 5684 5687 5690 5693 5697 5700 5703 5706 5708 5711 5713 5715 5717 5719 5721 5722 5724 5725 5726 5726 5727 5727 5728 5727 5727 5727 5727 5726 5725
5594 5597 5601 5604 5607 5610 5614 5622 5625 5630 5634 5638 5642 5646 5651 5655 5659 5663 5667 5670 5673 5676 5680 5683 5686 5689 5692 5695 5697 5700 5702 5704 5706 5708 5710 5711 5713 5714 5715 5715 5716 5716 5716 5716 5716 5716 5716 5715 5714